Regional Weather Roundup
Issued by NWS Sterling, VA

Home | Current Version | Previous Version | Graphics & Text | Print | Product List | Glossary On
Versions: 1 2 3 4 5 6 7 8 9 10 11 12 13 14 15 16 17 18 19 20 21 22 23 24 25 26 27 28 29 30 31 32 33 34 35 36 37 38 39 40 41 42 43 44 45 46 47 48 49 50
000
ASUS41 KLWX 082310
RWRLWX

REGIONAL WEATHER ROUNDUP
NATIONAL WEATHER SERVICE BALTIMORE MD/WASHINGTON DC
700 PM EDT TUE JUL 08 2014

Note: "FAIR" indicates few or no clouds below 12,000 feet
with no significant weather and/or obstructions to visibility.
 TC=TEMPERATURE CELSIUS

 * =Non NWS site. Station does not report precipitation (e.g. rain,
    snow, etc.), thunder, or fog.

DCZ001-MDZ009-015-VAZ040>042-051-053>054-090000-
WASHINGTON METRO
  /KDAA//-FT BELVOIR

CITY           SKY/WX    TMP DP  RH WIND       PRES   REMARKS
WASHINGTON NAT PTSUNNY   94  63  35 SW20G31   29.73S HX  95
DULLES         TSTM      71  64  78 W25G46    29.82R
ANDREWS AFB    MOSUNNY   92  66  42 S18G25    29.74F HX  94
QUANTICO       PTSUNNY   91  67  44 SW9       29.75S HX  94
COLLEGE PARK*  MOSUNNY   91  63  38 SW9       29.72S HX  92
LEESBURG*      TSTM      68  68 100 W10G22    29.82R
GAITHERSBURG*  PTSUNNY   81  61  50 NW18G40   29.87R

$$

MDZ006>007-011-014-090000-
BALTIMORE METRO

CITY           SKY/WX    TMP DP  RH WIND       PRES   REMARKS
BWI AIRPORT    PTSUNNY   90  64  42 SW13G21   29.71F HX  91
MD SCIENCE CTR   N/A     92  65  40 MISG      29.71F HX  94
MARTIN STATE   MOSUNNY   90  72  55 S9G16     29.71F HX  96
ANNAPOLIS      SUNNY     91  65  41 S12       29.71F HX  93
FORT MEADE*    MOSUNNY   86  64  48 SW13G20   29.75R

$$

MDZ012-015-019>023-090000-
MARYLAND EASTERN SHORE

CITY           SKY/WX    TMP DP  RH WIND       PRES   REMARKS
OCEAN CITY     MOSUNNY   83  72  69 SW20G32   29.81F
SALISBURY      MOSUNNY   92  69  47 S17G26    29.79F HX  97
BAY BRIDGE AP*   N/A     90  63  40 S10G16    29.72F HX  90
CAMBRIDGE*     SUNNY     91  70  49 S8        29.76S HX  97
EASTON*        MOSUNNY   93  68  43 S15G21    29.77F HX  97

$$

MDZ017>025-090000-
SOUTHERN MARYLAND

CITY           SKY/WX    TMP DP  RH WIND       PRES   REMARKS
PATUXENT RIVER MOSUNNY   92  62  36 S8        29.75F HX  92
ST INIGOES     SUNNY     90  66  45 S13       29.76S HX  92
LEONARDTOWN*   NOT AVBL

$$

MDZ003>005-090000-
NORTH CENTRAL MARYLAND

CITY           SKY/WX    TMP DP  RH WIND       PRES   REMARKS
FREDERICK*     NOT AVBL
HAGERSTOWN APT CLOUDY    72  67  84 S12       29.76R
WESTMINSTER*   PTSUNNY   75  68  78 SW18G54   29.83R

$$

MDZ501>502-090000-
WESTERN MARYLAND

CITY           SKY/WX    TMP DP  RH WIND       PRES   REMARKS
OAKLAND*       CLOUDY    66 N/A N/A SW14G21   29.89S
CUMBERLAND*    CLOUDY    73  66  78 S6        29.81F

$$

VAZ025>031-090000-
SHENANDOAH VALLEY

CITY           SKY/WX    TMP DP  RH WIND       PRES   REMARKS
WINCHESTER*    LGT RAIN  72  64  78 SW9G16    29.80F
STAUNTON*      HVY RAIN  70  64  81 W8G35     29.90R

$$

WVZ021-048>050-054>055-090000-
EASTERN WEST VIRGINIA PANHANDLE

CITY           SKY/WX    TMP DP  RH WIND       PRES   REMARKS
MARTINSBURG    CLOUDY    72  66  81 S8        29.79R
PETERSBURG*    NOT AVBL

$$

VAZ036>039-050-090000-
CENTRAL FOOTHILLS

CITY           SKY/WX    TMP DP  RH WIND       PRES   REMARKS
CHARLOTTESVILL PTSUNNY   88  66  48 SW14G25   29.78F HX  90
ORANGE*        MOSUNNY   88  66  48 S8        29.78F HX  90

$$

VAZ055>057-090000-
NORTH AND CENTRAL PIEDMONT

CITY           SKY/WX    TMP DP  RH WIND       PRES   REMARKS
FREDERICKSBRG* SUNNY     94  67  41 S10       29.75S HX  97
STAFFORD*      SUNNY     92  66  42 SW9G16    29.79S HX  94

$$

NCZ024-NYZ072-PAZ021-071-VAZ022-071-090000-
OTHER REGIONAL OBSERVATIONS

CITY           SKY/WX    TMP DP  RH WIND       PRES   REMARKS
NEW YORK CITY  PTSUNNY   86  67  52 VRB6      29.71F
PHILADELPHIA   PTSUNNY   92  65  40 S17G26    29.70F HX  94
PITTSBURGH     PTSUNNY   77  69  76 SW14      29.75S
ROANOKE        CLOUDY    89  59  36 W10G18    29.89R
RICHMOND       CLOUDY    95  56  26 SW16G24   29.80S HX  93
RALEIGH        PTSUNNY   93  57  29 SW16      29.89R HX  91

$$

ANZ530>537-090000-
MARINE OBSERVATIONS

STATION/POSITION TIME  TEMP    WIND        PRES
                       AIR SEA DIR/SP/G
                 (UTC) (F)     (DEG/KT/KT) (MB)
THOMAS PT LIGHT  2300   87 80  200/ 16/ 17 1006.8F
BALT KEY BRIDGE  2300   92     180/ 13/ 15 1005.3F
COVE POINT       2300   92     210/ 18/ 22 1007.4F
LEWISETTA        2300   89 82  200/ 16/ 20 1008.3S
SOLOMONS ISLAND  2300      80                N/A
PINEY POINT      2300          220/ 16/ 17   N/A

$$




USA.gov is the U.S. government's official web portal to all federal, state and local government web resources and services.